Japanese version Home page |
Updated on March 6, 2020 |
|
Orbital ElementsEpoch 2018 Jan. 2.0 TT = JDT 2458120.5 T 2017 Dec. 20.94548 TT MPCW q 2.2140072 (2000.0) P Q n 0.11570769 Peri. 230.39326 +0.91111445 +0.07431435 a 4.1708820 Node 121.57365 -0.02697293 +0.99225285 e 0.4691753 Incl. 28.41391 -0.41126989 +0.09955729 P 8.52 From 108 observations 2008 May 30-2018 Jan. 4, mean residual 0".5.
|
Magnitudes Graph14.0 + 5 log d + 10.0 log r
|
The orbital elements are published on M.P.E.C. 2018-B155.
|